Milledgeville, GA

5:22 PM EST on November 21, 2019 (GMT -0500)
Baldwin County

Weather History for KMLJ - September, 2019

Change the Weather History Date:

Friday, September 20, 2019

  Actual Average (KOKZ) Record (KOKZ)
Temperature  
Mean Temperature 72 °F -  
Max Temperature 86 °F 85 °F 90 °F (2015)
Min Temperature 59 °F 63 °F 55 °F (2019)
Cooling Degree Days 8    
Growing Degree Days 22 (Base 50)    
Moisture  
Dew Point 53 °F    
Average Humidity 54    
Maximum Humidity 82    
Minimum Humidity 31    
Precipitation  
Precipitation 0.00 in - - ()
Sea Level Pressure  
Sea Level Pressure 30.25 in    
Wind  
Wind Speed 3 mph (East)    
Max Wind Speed 7 mph    
Max Gust Speed -    
Visibility 10 miles    
Events      
Averages and records for this station are not official NWS values.
T = Trace of Precipitation, MM = Missing Value Source: NWS Daily Summary

Daily Weather History Graph

Daily Weather History Graph

Search for Another Location

Airport or City:

Astronomy

Sep. 20, 2019 Rise Set
Actual Time 7:19 AM EDT 7:32 PM EDT
Civil Twilight 6:54 AM EDT 7:57 PM EDT
Nautical Twilight 6:25 AM EDT 8:26 PM EDT
Astronomical Twilight 5:56 AM EDT 8:55 PM EDT
Moon 11:39 PM EDT (9/20) 1:05 PM EDT (9/20)
Length of Visible Light 13h 02m
Length of Day
12h 13m
Waning Gibbous, 65% of the Moon is Illuminated
Sep 20
Waning Gibbous
Sep 21
Last Quarter
Sep 28
New
Oct 5
First Quarter
Oct 13
Full

Hourly Weather History & Observations

Time (EDT) Temp. Heat Index Dew Point Humidity Pressure Visibility Wind Dir Wind Speed Gust Speed Precip Events Conditions
12:15 AM 69.8 °F - 50.0 °F 49% 30.23 in 10.0 mi SE 5.8 mph - N/A   Clear
12:35 AM 69.8 °F - 50.0 °F 49% 30.23 in 10.0 mi ESE 5.8 mph - N/A   Clear
12:55 AM 68.0 °F - 50.0 °F 52% 30.23 in 10.0 mi ESE 4.6 mph - N/A   Clear
1:15 AM 68.0 °F - 50.0 °F 52% 30.23 in 10.0 mi ESE 6.9 mph - N/A   Clear
1:55 AM 66.2 °F - 50.0 °F 56% 30.24 in 10.0 mi Calm Calm - N/A   Clear
2:15 AM 66.2 °F - 50.0 °F 56% 30.24 in 10.0 mi East 3.5 mph - N/A   Clear
2:35 AM 64.4 °F - 50.0 °F 59% 30.24 in 10.0 mi ENE 3.5 mph - N/A   Clear
2:55 AM 64.4 °F - 51.8 °F 64% 30.24 in 10.0 mi NE 3.5 mph - N/A   Clear
3:15 AM 62.6 °F - 50.0 °F 63% 30.24 in 10.0 mi NE 3.5 mph - N/A   Clear
3:35 AM 62.6 °F - 51.8 °F 68% 30.25 in 10.0 mi Calm Calm - N/A   Clear
3:55 AM 62.6 °F - 51.8 °F 68% 30.24 in 10.0 mi East 5.8 mph - N/A   Clear
4:15 AM 62.6 °F - 51.8 °F 68% 30.24 in 10.0 mi East 3.5 mph - N/A   Clear
4:35 AM 60.8 °F - 51.8 °F 72% 30.24 in 10.0 mi ENE 3.5 mph - N/A   Clear
4:55 AM 60.8 °F - 51.8 °F 72% 30.24 in 10.0 mi Calm Calm - N/A   Clear
5:15 AM 60.8 °F - 51.8 °F 72% 30.25 in 10.0 mi Calm Calm - N/A   Clear
5:35 AM 59.0 °F - 51.8 °F 77% 30.25 in 10.0 mi Calm Calm - N/A   Clear
5:55 AM 59.0 °F - 51.8 °F 77% 30.25 in 10.0 mi Calm Calm - N/A   Clear
6:15 AM 59.0 °F - 51.8 °F 77% 30.26 in 10.0 mi Calm Calm - N/A   Clear
6:35 AM 59.0 °F - 51.8 °F 77% 30.27 in 10.0 mi Calm Calm - N/A   Clear
6:55 AM 59.0 °F - 51.8 °F 77% 30.27 in 10.0 mi Calm Calm - N/A   Clear
7:15 AM 59.0 °F - 51.8 °F 77% 30.28 in 10.0 mi NNE 3.5 mph - N/A   Clear
7:35 AM 59.0 °F - 51.8 °F 77% 30.28 in 10.0 mi NE 3.5 mph - N/A   Clear
7:55 AM 59.0 °F - 53.6 °F 82% 30.29 in 10.0 mi ENE 3.5 mph - N/A   Clear
8:15 AM 60.8 °F - 53.6 °F 77% 30.29 in 10.0 mi East 3.5 mph - N/A   Clear
8:35 AM 62.6 °F - 53.6 °F 72% 30.30 in 10.0 mi East 3.5 mph - N/A   Clear
8:55 AM 62.6 °F - 53.6 °F 72% 30.30 in 10.0 mi East 5.8 mph - N/A   Clear
9:15 AM 64.4 °F - 53.6 °F 68% 30.31 in 10.0 mi East 5.8 mph - N/A   Clear
9:35 AM 66.2 °F - 53.6 °F 64% 30.31 in 10.0 mi East 5.8 mph - N/A   Clear
9:55 AM 68.0 °F - 55.4 °F 64% 30.31 in 10.0 mi East 5.8 mph - N/A   Clear
10:35 AM 71.6 °F - 55.4 °F 57% 30.31 in 10.0 mi ENE 4.6 mph - N/A   Clear
10:55 AM 73.4 °F - 55.4 °F 53% 30.31 in 10.0 mi Calm Calm - N/A   Clear
11:15 AM 75.2 °F - 55.4 °F 50% 30.31 in 10.0 mi Calm Calm - N/A   Clear
11:35 AM 75.2 °F - 55.4 °F 50% 30.31 in 10.0 mi ENE 3.5 mph - N/A   Clear
11:55 AM 77.0 °F - 55.4 °F 47% 30.31 in 10.0 mi East 5.8 mph - N/A   Clear
12:15 PM 78.8 °F - 55.4 °F 44% 30.30 in 10.0 mi East 4.6 mph - N/A   Clear
12:35 PM 78.8 °F - 53.6 °F 42% 30.30 in 10.0 mi Calm Calm - N/A   Clear
12:55 PM 78.8 °F - 53.6 °F 42% 30.29 in 10.0 mi East 4.6 mph - N/A   Clear
1:15 PM 80.6 °F 80.3 °F 53.6 °F 39% 30.28 in 10.0 mi NNE 3.5 mph - N/A   Clear
1:35 PM 80.6 °F 80.3 °F 53.6 °F 39% 30.27 in 10.0 mi Calm Calm - N/A   Clear
1:55 PM 80.6 °F 80.3 °F 53.6 °F 39% 30.27 in 10.0 mi North 3.5 mph - N/A   Clear
2:15 PM 82.4 °F 81.4 °F 53.6 °F 37% 30.26 in 10.0 mi Calm Calm - N/A   Clear
2:35 PM 82.4 °F 81.4 °F 53.6 °F 37% 30.25 in 10.0 mi NNE 5.8 mph - N/A   Clear
2:55 PM 82.4 °F - 51.8 °F 35% 30.24 in 10.0 mi ENE 3.5 mph - N/A   Clear
3:15 PM 84.2 °F - 51.8 °F 33% 30.23 in 10.0 mi SSW 3.5 mph - N/A   Clear
3:35 PM 86.0 °F - 51.8 °F 31% 30.22 in 10.0 mi Calm Calm - N/A   Clear
3:55 PM 84.2 °F - 51.8 °F 33% 30.22 in 10.0 mi Calm Calm - N/A   Clear
4:15 PM 84.2 °F - 51.8 °F 33% 30.21 in 10.0 mi Calm Calm - N/A   Clear
4:35 PM 86.0 °F 84.2 °F 53.6 °F 33% 30.21 in 10.0 mi SE 5.8 mph - N/A   Clear
4:55 PM 86.0 °F - 51.8 °F 31% 30.21 in 10.0 mi Calm Calm - N/A   Clear
5:15 PM 86.0 °F - 51.8 °F 31% 30.21 in 10.0 mi Calm Calm - N/A   Clear
5:35 PM 86.0 °F 84.2 °F 53.6 °F 33% 30.21 in 10.0 mi South 3.5 mph - N/A   Clear
5:55 PM 84.2 °F 82.8 °F 53.6 °F 35% 30.21 in 10.0 mi South 3.5 mph - N/A   Clear
6:15 PM 82.4 °F 81.4 °F 53.6 °F 37% 30.21 in 10.0 mi Calm Calm - N/A   Clear
6:35 PM 82.4 °F 81.4 °F 53.6 °F 37% 30.21 in 10.0 mi ESE 3.5 mph - N/A   Clear
6:55 PM 82.4 °F - 51.8 °F 35% 30.21 in 10.0 mi ESE 5.8 mph - N/A   Clear
7:15 PM 78.8 °F - 53.6 °F 42% 30.21 in 10.0 mi Calm Calm - N/A   Clear
7:35 PM 77.0 °F - 55.4 °F 47% 30.21 in 10.0 mi Calm Calm - N/A   Clear
7:55 PM 77.0 °F - 55.4 °F 47% 30.22 in 10.0 mi Calm Calm - N/A   Clear
8:15 PM 73.4 °F - 55.4 °F 53% 30.22 in 10.0 mi Calm Calm - N/A   Clear
8:35 PM 73.4 °F - 55.4 °F 53% 30.22 in 10.0 mi Calm Calm - N/A   Clear
8:55 PM 73.4 °F - 57.2 °F 57% 30.23 in 10.0 mi Calm Calm - N/A   Clear
9:15 PM 75.2 °F - 55.4 °F 50% 30.24 in 10.0 mi Calm Calm - N/A   Clear
9:35 PM 73.4 °F - 57.2 °F 57% 30.24 in 10.0 mi Calm Calm - N/A   Clear
9:55 PM 73.4 °F - 57.2 °F 57% 30.24 in 10.0 mi East 3.5 mph - N/A   Clear
10:15 PM 73.4 °F - 57.2 °F 57% 30.25 in 10.0 mi SE 3.5 mph - N/A   Scattered Clouds
10:35 PM 73.4 °F - 55.4 °F 53% 30.25 in 10.0 mi ESE 5.8 mph - N/A   Scattered Clouds
10:55 PM 73.4 °F - 55.4 °F 53% 30.25 in 10.0 mi SE 5.8 mph - N/A   Scattered Clouds
11:15 PM 73.4 °F - 55.4 °F 53% 30.26 in 10.0 mi SSE 4.6 mph - N/A   Clear
11:35 PM 71.6 °F - 57.2 °F 60% 30.26 in 10.0 mi SE 3.5 mph - N/A   Clear
11:55 PM 69.8 °F - 59.0 °F 68% 30.27 in 10.0 mi Calm Calm - N/A   Clear